Location: Lachaise
(45.8833°N, 1.8500°E)
Time: 07:27:00
(UTC+00:00)

Iridium 2 - Pass Details

Date: 07 June 2020
Orbit: 505 x 515 km, 85.5° (Epoch: 04 July)

Event Time Altitude Azimuth Distance (km) Brightness Sun altitude
Rises 01:55:30 0° 353° (N) 2,623 8.2 -15.8°
Reaches altitude 10° 01:57:38 10° 350° (N) 1,733 7.1 -15.6°
Maximum altitude 02:01:23 67° 268° (W) 555 3.6 -15.3°
Enters shadow 02:03:14 28° 193° (SSW) 981 4.5 -15.1°
